BAW346 EGLL-LFML

Flight info

Callsign BAW346
Flight time N/A
Altitude 37000
Route MAXIT Y803 MID UL612 RESMI UM728 KETEX DCT KOTIS DCT KUKOR DCT UTUVA/N0466F290 DCT LERGA
Aircraft A319/M-SDE3FGHIRWY/LB1

Departure

Time 2026-05-06 10:50
Airport London Heathrow Airport (EGLL)

Arrival

Time N/A
Airport Marseille Provence Airport (LFML)
Time Latitude Longitude Altitude Speed Heading
2026-05-06 10:12 51.47430 -0.46319 87 ft 0 kts 199°
2026-05-06 10:36 51.47444 -0.46311 91 ft 4 kts 201°
2026-05-06 10:36 51.47469 -0.46293 91 ft 4 kts 208°
2026-05-06 10:36 51.47492 -0.46271 87 ft 4 kts 218°
2026-05-06 10:37 51.47511 -0.46242 90 ft 4 kts 242°
2026-05-06 10:37 51.47516 -0.46221 88 ft 0 kts 269°
2026-05-06 10:40 51.47516 -0.46238 90 ft 4 kts 269°
2026-05-06 10:40 51.47515 -0.46291 87 ft 6 kts 269°
2026-05-06 10:41 51.47515 -0.46369 87 ft 9 kts 269°
2026-05-06 10:41 51.47515 -0.46477 87 ft 11 kts 269°
2026-05-06 10:41 51.47514 -0.46609 87 ft 13 kts 270°
2026-05-06 10:41 51.47499 -0.46759 87 ft 15 kts 252°
2026-05-06 10:42 51.47455 -0.46897 87 ft 16 kts 187°
2026-05-06 10:42 51.47351 -0.46870 87 ft 14 kts 178°
2026-05-06 10:42 51.47247 -0.46868 87 ft 16 kts 180°
2026-05-06 10:42 51.47132 -0.46868 87 ft 18 kts 180°
2026-05-06 10:43 51.47009 -0.46867 87 ft 12 kts 180°
2026-05-06 10:43 51.46923 -0.46866 87 ft 13 kts 180°
2026-05-06 10:43 51.46831 -0.46865 87 ft 7 kts 180°
2026-05-06 10:44 51.46746 -0.46963 88 ft 14 kts 268°
2026-05-06 10:44 51.46746 -0.47133 91 ft 16 kts 269°
2026-05-06 10:44 51.46745 -0.47330 87 ft 19 kts 269°
2026-05-06 10:44 51.46745 -0.47551 87 ft 21 kts 270°
2026-05-06 10:45 51.46743 -0.47795 87 ft 23 kts 269°
2026-05-06 10:45 51.46743 -0.48029 87 ft 15 kts 269°
2026-05-06 10:45 51.46743 -0.48111 87 ft 0 kts 269°
2026-05-06 10:45 51.46743 -0.48114 87 ft 1 kts 269°
2026-05-06 10:46 51.46743 -0.48121 87 ft 0 kts 269°
2026-05-06 10:46 51.46742 -0.48126 87 ft 0 kts 269°
2026-05-06 10:46 51.46742 -0.48128 87 ft 1 kts 269°
2026-05-06 10:46 51.46742 -0.48161 87 ft 5 kts 269°
2026-05-06 10:47 51.46741 -0.48250 87 ft 13 kts 269°
2026-05-06 10:47 51.46741 -0.48454 87 ft 24 kts 270°
2026-05-06 10:47 51.46730 -0.48725 89 ft 19 kts 233°
2026-05-06 10:47 51.46611 -0.48763 91 ft 11 kts 198°
2026-05-06 10:48 51.46587 -0.48777 88 ft 2 kts 200°
2026-05-06 10:48 51.46585 -0.48779 88 ft 2 kts 200°
2026-05-06 10:48 51.46553 -0.48792 88 ft 7 kts 189°
2026-05-06 10:48 51.46488 -0.48737 88 ft 14 kts 120°
2026-05-06 10:49 51.46478 -0.48649 88 ft 0 kts 89°
2026-05-06 10:49 51.46478 -0.48638 88 ft 5 kts 89°
2026-05-06 10:49 51.46478 -0.48339 89 ft 56 kts 89°
2026-05-06 10:49 51.46481 -0.47377 86 ft 115 kts 89°
2026-05-06 10:50 51.46487 -0.45818 90 ft 164 kts 89°
2026-05-06 10:50 51.46492 -0.43989 715 ft 159 kts 84°
2026-05-06 10:50 51.46502 -0.42213 1385 ft 166 kts 90°
2026-05-06 10:50 51.45973 -0.40416 1752 ft 193 kts 130°
2026-05-06 10:51 51.45081 -0.38778 2364 ft 199 kts 128°
2026-05-06 10:51 51.43921 -0.37379 2796 ft 223 kts 154°
2026-05-06 10:51 51.42393 -0.36558 3300 ft 242 kts 160°
2026-05-06 10:51 51.40658 -0.36013 3829 ft 267 kts 177°
2026-05-06 10:52 51.38809 -0.36490 4663 ft 279 kts 199°
2026-05-06 10:52 51.37021 -0.37732 5700 ft 280 kts 205°
2026-05-06 10:52 51.35260 -0.39147 6780 ft 279 kts 208°
2026-05-06 10:52 51.33550 -0.40562 7696 ft 283 kts 207°
2026-05-06 10:53 51.31783 -0.41980 8652 ft 285 kts 204°
2026-05-06 10:53 51.29844 -0.42746 9453 ft 294 kts 182°
2026-05-06 10:53 51.27799 -0.42198 10296 ft 297 kts 160°
2026-05-06 10:53 51.25822 -0.40970 10634 ft 319 kts 158°
2026-05-06 10:54 51.23700 -0.39600 10973 ft 339 kts 157°
2026-05-06 10:54 51.21499 -0.38135 11595 ft 346 kts 156°
2026-05-06 10:54 51.19260 -0.36633 12342 ft 350 kts 156°
2026-05-06 10:54 51.16998 -0.35125 13089 ft 354 kts 156°
2026-05-06 10:55 51.14717 -0.33621 13829 ft 357 kts 156°
2026-05-06 10:55 51.12411 -0.32112 14477 ft 361 kts 156°
2026-05-06 10:55 51.10081 -0.30596 15134 ft 363 kts 157°
2026-05-06 10:55 51.07731 -0.29070 15810 ft 366 kts 157°
2026-05-06 10:56 51.05366 -0.27536 16469 ft 369 kts 157°
2026-05-06 10:56 51.02987 -0.25992 17142 ft 372 kts 157°
2026-05-06 10:56 51.00614 -0.24457 17795 ft 374 kts 157°
2026-05-06 10:56 50.98195 -0.22895 18416 ft 377 kts 158°
2026-05-06 10:57 50.95754 -0.21319 18999 ft 380 kts 158°
2026-05-06 10:57 50.93296 -0.19733 19596 ft 382 kts 158°
2026-05-06 10:57 50.90821 -0.18138 20193 ft 384 kts 158°
2026-05-06 10:57 50.88332 -0.16537 20789 ft 387 kts 158°
2026-05-06 10:58 50.85831 -0.14928 21375 ft 389 kts 158°
2026-05-06 10:58 50.83315 -0.13310 21940 ft 392 kts 158°
2026-05-06 10:58 50.80787 -0.11687 22484 ft 395 kts 158°
2026-05-06 10:58 50.78233 -0.10051 23006 ft 398 kts 158°
2026-05-06 10:59 50.75662 -0.08406 23529 ft 400 kts 159°
2026-05-06 10:59 50.73074 -0.06754 23975 ft 402 kts 158°
2026-05-06 10:59 50.70521 -0.05126 24431 ft 403 kts 159°
2026-05-06 10:59 50.67889 -0.03446 24896 ft 405 kts 159°
2026-05-06 11:00 50.65302 -0.01800 25341 ft 406 kts 158°
2026-05-06 11:00 50.62657 -0.00119 25791 ft 408 kts 159°
2026-05-06 11:00 50.60055 0.01535 26241 ft 409 kts 159°
2026-05-06 11:00 50.57396 0.03219 26678 ft 411 kts 159°
2026-05-06 11:01 50.54733 0.04907 27124 ft 412 kts 159°
2026-05-06 11:01 50.52064 0.06601 27562 ft 414 kts 159°
2026-05-06 11:01 50.49657 0.08127 27970 ft 415 kts 159°
2026-05-06 11:01 50.47000 0.09810 28393 ft 417 kts 159°
2026-05-06 11:02 50.44294 0.11518 28832 ft 418 kts 159°
2026-05-06 11:02 50.41586 0.13222 29257 ft 419 kts 159°
2026-05-06 11:02 50.38865 0.14934 29662 ft 421 kts 159°
2026-05-06 11:02 50.36143 0.16645 30043 ft 422 kts 159°
2026-05-06 11:03 50.33441 0.18338 30354 ft 424 kts 159°
2026-05-06 11:03 50.30694 0.20059 30658 ft 426 kts 159°
2026-05-06 11:03 50.27921 0.21793 30938 ft 428 kts 159°
2026-05-06 11:03 50.25139 0.23524 31256 ft 430 kts 159°
2026-05-06 11:04 50.22389 0.25235 31637 ft 430 kts 159°
2026-05-06 11:04 50.19696 0.27274 32039 ft 430 kts 150°
2026-05-06 11:04 50.17168 0.29843 32442 ft 430 kts 148°
2026-05-06 11:04 50.14704 0.32396 32854 ft 429 kts 148°
2026-05-06 11:05 50.12206 0.34975 33260 ft 429 kts 148°
2026-05-06 11:05 50.09731 0.37516 33681 ft 428 kts 148°
2026-05-06 11:05 50.07240 0.40062 34091 ft 427 kts 149°
2026-05-06 11:05 50.04746 0.42604 34434 ft 427 kts 149°
2026-05-06 11:06 50.02246 0.45151 34733 ft 427 kts 149°
2026-05-06 11:06 49.99776 0.47663 35021 ft 428 kts 148°
2026-05-06 11:06 49.97277 0.50206 35293 ft 429 kts 148°
2026-05-06 11:06 49.94766 0.52760 35584 ft 430 kts 148°
2026-05-06 11:07 49.92292 0.55276 35839 ft 431 kts 148°
2026-05-06 11:07 49.89776 0.57831 36092 ft 432 kts 148°
2026-05-06 11:07 49.87253 0.60388 36351 ft 432 kts 148°
2026-05-06 11:07 49.84797 0.63080 36603 ft 434 kts 142°
2026-05-06 11:08 49.82460 0.66035 36847 ft 435 kts 142°
2026-05-06 11:08 49.80138 0.68967 36949 ft 436 kts 142°
2026-05-06 11:08 49.77784 0.71931 36971 ft 435 kts 142°
2026-05-06 11:09 49.73069 0.77848 36962 ft 435 kts 142°
2026-05-06 11:09 49.68381 0.83726 36959 ft 435 kts 143°
2026-05-06 11:10 49.63667 0.89614 36956 ft 435 kts 143°
2026-05-06 11:10 49.58986 0.95451 36953 ft 435 kts 143°
2026-05-06 11:11 49.54261 1.01316 36955 ft 435 kts 143°
2026-05-06 11:11 49.49555 1.07148 36955 ft 435 kts 143°
2026-05-06 11:12 49.44841 1.12995 36958 ft 435 kts 143°
2026-05-06 11:12 49.40146 1.18784 36957 ft 434 kts 143°
2026-05-06 11:13 49.35430 1.24589 36958 ft 434 kts 143°
2026-05-06 11:13 49.30728 1.30366 36955 ft 433 kts 143°
2026-05-06 11:14 49.26018 1.36131 36950 ft 433 kts 143°
2026-05-06 11:14 49.21309 1.41876 36945 ft 433 kts 143°
2026-05-06 11:15 49.16604 1.47612 36946 ft 433 kts 143°
2026-05-06 11:15 49.11897 1.53328 36946 ft 432 kts 143°
2026-05-06 11:16 49.07187 1.59042 37106 ft 433 kts 143°
2026-05-06 11:16 49.04811 1.61923 36945 ft 440 kts 142°
2026-05-06 11:16 49.02412 1.64826 36924 ft 443 kts 143°
2026-05-06 11:17 48.97564 1.70666 36926 ft 445 kts 143°
2026-05-06 11:17 48.92706 1.76494 36921 ft 445 kts 143°
2026-05-06 11:18 48.87888 1.82279 36925 ft 444 kts 143°
2026-05-06 11:18 48.83041 1.88098 36919 ft 444 kts 143°
2026-05-06 11:19 48.78190 1.93897 36920 ft 444 kts 143°
2026-05-06 11:19 48.73871 1.99060 36918 ft 444 kts 143°
2026-05-06 11:20 48.69014 2.04832 36916 ft 444 kts 143°
2026-05-06 11:20 48.64149 2.10586 36913 ft 444 kts 143°
2026-05-06 11:21 48.59268 2.16299 36905 ft 443 kts 147°
2026-05-06 11:21 48.53761 2.20339 36897 ft 440 kts 165°
2026-05-06 11:22 48.47826 2.22613 36898 ft 440 kts 167°
2026-05-06 11:22 48.41879 2.24875 36901 ft 441 kts 167°
2026-05-06 11:23 48.35919 2.27134 36901 ft 442 kts 167°
2026-05-06 11:23 48.29960 2.29387 36902 ft 442 kts 167°
2026-05-06 11:24 48.24002 2.31678 36902 ft 442 kts 166°
2026-05-06 11:24 48.18090 2.34045 36909 ft 443 kts 166°
2026-05-06 11:25 48.12140 2.36463 36916 ft 443 kts 165°
2026-05-06 11:25 48.06271 2.39277 36924 ft 443 kts 162°
2026-05-06 11:26 48.00439 2.42321 36921 ft 443 kts 162°
2026-05-06 11:26 47.94593 2.45318 36926 ft 444 kts 162°
2026-05-06 11:27 47.88743 2.48219 36926 ft 444 kts 163°
2026-05-06 11:27 47.82870 2.51083 36925 ft 444 kts 163°
2026-05-06 11:28 47.77037 2.53932 36918 ft 444 kts 163°
2026-05-06 11:28 47.71181 2.56821 36913 ft 444 kts 163°
2026-05-06 11:29 47.66298 2.59222 36909 ft 444 kts 163°
2026-05-06 11:29 47.60430 2.62089 36905 ft 444 kts 163°
2026-05-06 11:30 47.54563 2.64953 36904 ft 444 kts 163°
2026-05-06 11:30 47.48693 2.67810 36905 ft 444 kts 163°
2026-05-06 11:31 47.42820 2.70661 36912 ft 444 kts 163°
2026-05-06 11:31 47.36949 2.73517 36900 ft 444 kts 163°
2026-05-06 11:32 47.31091 2.76356 36904 ft 443 kts 163°
2026-05-06 11:32 47.25214 2.79184 36904 ft 444 kts 163°
2026-05-06 11:33 47.19345 2.81996 36903 ft 444 kts 163°
2026-05-06 11:33 47.13483 2.84817 36910 ft 443 kts 163°
2026-05-06 11:34 47.07615 2.87636 36909 ft 443 kts 163°
2026-05-06 11:34 47.01792 2.90411 36887 ft 443 kts 163°
2026-05-06 11:35 46.95929 2.93198 36886 ft 443 kts 163°
2026-05-06 11:35 46.90070 2.95992 36889 ft 443 kts 163°
2026-05-06 11:36 46.84211 2.98776 36888 ft 442 kts 163°
2026-05-06 11:36 46.78355 3.01543 36887 ft 443 kts 163°
2026-05-06 11:37 46.72494 3.04310 36888 ft 443 kts 163°
2026-05-06 11:37 46.66633 3.07062 36886 ft 443 kts 163°
2026-05-06 11:38 46.60770 3.09820 36889 ft 443 kts 163°
2026-05-06 11:38 46.54905 3.12568 36888 ft 443 kts 164°
2026-05-06 11:39 46.49068 3.15496 36893 ft 444 kts 161°
2026-05-06 11:39 46.43295 3.18693 36902 ft 444 kts 161°
2026-05-06 11:40 46.37531 3.21894 36904 ft 444 kts 161°
2026-05-06 11:40 46.31742 3.25018 36910 ft 444 kts 162°
2026-05-06 11:41 46.25971 3.28090 36915 ft 444 kts 162°
2026-05-06 11:41 46.20164 3.31185 36913 ft 444 kts 162°
2026-05-06 11:42 46.14367 3.34271 36913 ft 444 kts 162°
2026-05-06 11:42 46.08807 3.38100 36910 ft 448 kts 144°
2026-05-06 11:43 46.03913 3.43667 36907 ft 449 kts 144°
2026-05-06 11:43 45.99060 3.49246 36901 ft 450 kts 144°
2026-05-06 11:44 45.91716 3.57663 36904 ft 450 kts 144°
2026-05-06 11:44 45.86814 3.63258 36907 ft 450 kts 144°
2026-05-06 11:45 45.81904 3.68840 36915 ft 450 kts 144°
2026-05-06 11:45 45.76993 3.74415 36917 ft 450 kts 144°
2026-05-06 11:46 45.72078 3.79988 36918 ft 450 kts 145°
2026-05-06 11:46 45.67191 3.85515 36918 ft 451 kts 145°
2026-05-06 11:47 45.62271 3.91063 36924 ft 451 kts 145°
2026-05-06 11:47 45.57345 3.96600 36933 ft 451 kts 145°
2026-05-06 11:48 45.52413 4.02125 36938 ft 451 kts 145°
2026-05-06 11:48 45.47473 4.07658 36946 ft 451 kts 145°
2026-05-06 11:49 45.42537 4.13177 36951 ft 451 kts 146°
2026-05-06 11:49 45.37591 4.18689 36950 ft 452 kts 146°
2026-05-06 11:50 45.32644 4.24182 36946 ft 451 kts 146°
2026-05-06 11:50 45.27693 4.29683 36940 ft 452 kts 146°
2026-05-06 11:51 45.22768 4.35142 36938 ft 452 kts 146°
2026-05-06 11:51 45.17776 4.40653 36943 ft 452 kts 146°
2026-05-06 11:52 45.12814 4.46123 36936 ft 452 kts 146°
2026-05-06 11:52 45.07856 4.51577 36942 ft 451 kts 147°
2026-05-06 11:53 45.02953 4.56939 36947 ft 451 kts 147°
2026-05-06 11:53 44.97991 4.62373 36951 ft 451 kts 147°
2026-05-06 11:54 44.93038 4.67793 36955 ft 450 kts 147°
2026-05-06 11:54 44.88083 4.73186 36953 ft 450 kts 147°
2026-05-06 11:55 44.83131 4.78569 36952 ft 449 kts 147°
2026-05-06 11:55 44.78178 4.83937 35930 ft 458 kts 148°
2026-05-06 11:56 44.75620 4.86654 35140 ft 461 kts 151°
2026-05-06 11:56 44.72869 4.88921 34386 ft 455 kts 161°
2026-05-06 11:56 44.69946 4.90470 33836 ft 445 kts 169°
2026-05-06 11:56 44.66949 4.91364 33007 ft 439 kts 176°
2026-05-06 11:57 44.63946 4.92061 32175 ft 440 kts 176°
2026-05-06 11:57 44.60971 4.92752 31506 ft 436 kts 176°
2026-05-06 11:57 44.57990 4.93446 30772 ft 435 kts 177°
2026-05-06 11:57 44.55024 4.94138 30238 ft 428 kts 177°
2026-05-06 11:58 44.52107 4.94825 29638 ft 422 kts 177°
2026-05-06 11:58 44.49231 4.95505 29107 ft 415 kts 177°
2026-05-06 11:58 44.46411 4.96169 28576 ft 408 kts 177°
2026-05-06 11:58 44.43631 4.96819 28059 ft 402 kts 177°
2026-05-06 11:59 44.40881 4.97458 27548 ft 396 kts 177°
2026-05-06 11:59 44.38182 4.98084 27049 ft 391 kts 177°
2026-05-06 11:59 44.35518 4.98702 26554 ft 386 kts 177°
2026-05-06 11:59 44.32888 4.99310 26079 ft 381 kts 177°
2026-05-06 12:00 44.30281 4.99911 25610 ft 377 kts 177°
2026-05-06 12:00 44.27708 5.00508 25154 ft 373 kts 177°
2026-05-06 12:00 44.25164 5.01096 24714 ft 369 kts 177°
2026-05-06 12:00 44.22641 5.01674 24275 ft 366 kts 177°
2026-05-06 12:01 44.20135 5.02245 23869 ft 364 kts 178°
2026-05-06 12:01 44.17641 5.02814 23434 ft 361 kts 178°
2026-05-06 12:01 44.15171 5.03381 22971 ft 358 kts 178°
2026-05-06 12:01 44.12731 5.03942 22555 ft 353 kts 178°
2026-05-06 12:02 44.10360 5.04490 22145 ft 348 kts 178°
2026-05-06 12:02 44.07960 5.05047 21719 ft 343 kts 178°
2026-05-06 12:02 44.05651 5.05579 21315 ft 338 kts 178°
2026-05-06 12:02 44.03327 5.06107 20952 ft 343 kts 178°
2026-05-06 12:03 44.00927 5.06639 20912 ft 353 kts 178°
2026-05-06 12:03 43.98493 5.07184 20806 ft 355 kts 178°
2026-05-06 12:03 43.96023 5.07744 19850 ft 366 kts 177°
2026-05-06 12:03 43.93481 5.08322 19042 ft 373 kts 176°
2026-05-06 12:04 43.90923 5.08913 18490 ft 371 kts 175°
2026-05-06 12:04 43.88390 5.09559 17950 ft 371 kts 171°
2026-05-06 12:04 43.85943 5.10663 17431 ft 368 kts 166°
2026-05-06 12:04 43.83539 5.11821 16925 ft 363 kts 166°
2026-05-06 12:05 43.81169 5.12951 16423 ft 358 kts 166°
2026-05-06 12:05 43.78820 5.14060 15926 ft 354 kts 166°
2026-05-06 12:05 43.76503 5.15147 15435 ft 350 kts 166°
2026-05-06 12:05 43.74209 5.16225 14947 ft 346 kts 165°
2026-05-06 12:06 43.71938 5.17295 14465 ft 343 kts 165°
2026-05-06 12:06 43.69688 5.18351 13983 ft 340 kts 165°
2026-05-06 12:06 43.67453 5.19372 13494 ft 337 kts 166°
2026-05-06 12:06 43.65233 5.20366 13003 ft 334 kts 166°
2026-05-06 12:07 43.63037 5.21343 12538 ft 330 kts 166°
2026-05-06 12:07 43.60858 5.22311 12078 ft 327 kts 166°
2026-05-06 12:07 43.58668 5.23076 11626 ft 321 kts 175°
2026-05-06 12:07 43.56494 5.23225 11196 ft 314 kts 186°
2026-05-06 12:08 43.54318 5.22955 10773 ft 311 kts 189°
2026-05-06 12:08 43.52177 5.22680 10360 ft 309 kts 188°
2026-05-06 12:08 43.50078 5.22418 10228 ft 297 kts 188°
2026-05-06 12:08 43.48053 5.22170 10073 ft 288 kts 188°
2026-05-06 12:09 43.46070 5.21925 9955 ft 284 kts 189°
2026-05-06 12:09 43.44134 5.21683 9872 ft 284 kts 188°
2026-05-06 12:09 43.42144 5.21439 9378 ft 287 kts 188°
2026-05-06 12:09 43.40165 5.21213 9053 ft 284 kts 188°
2026-05-06 12:10 43.38197 5.20993 8658 ft 283 kts 188°
2026-05-06 12:10 43.36240 5.20775 8288 ft 281 kts 188°
2026-05-06 12:10 43.34290 5.20559 7942 ft 280 kts 188°
2026-05-06 12:10 43.32353 5.20343 7693 ft 276 kts 188°
2026-05-06 12:11 43.30473 5.20137 7564 ft 266 kts 188°
2026-05-06 12:11 43.28645 5.20323 7393 ft 264 kts 171°
2026-05-06 12:11 43.26935 5.21257 7101 ft 268 kts 152°
2026-05-06 12:11 43.25429 5.22782 6795 ft 269 kts 145°
2026-05-06 12:12 43.24096 5.24542 6497 ft 272 kts 129°
2026-05-06 12:12 43.23199 5.26842 6017 ft 280 kts 109°
2026-05-06 12:12 43.22898 5.29550 5233 ft 296 kts 88°
2026-05-06 12:12 43.23334 5.32347 4444 ft 303 kts 64°
2026-05-06 12:13 43.24454 5.34709 3881 ft 292 kts 44°
2026-05-06 12:13 43.26045 5.36331 3376 ft 280 kts 22°
2026-05-06 12:13 43.27872 5.37041 3066 ft 267 kts
2026-05-06 12:13 43.29643 5.36889 2995 ft 245 kts 343°
2026-05-06 12:14 43.31158 5.36084 2920 ft 225 kts 326°
2026-05-06 12:14 43.32343 5.34828 2805 ft 208 kts 308°
2026-05-06 12:14 43.33192 5.33289 2668 ft 199 kts 300°
2026-05-06 12:14 43.33933 5.31763 2562 ft 184 kts 301°
2026-05-06 12:15 43.34685 5.30375 2425 ft 180 kts 312°
2026-05-06 12:15 43.35749 5.29461 2197 ft 182 kts 333°
2026-05-06 12:15 43.36927 5.28840 1844 ft 180 kts 334°
2026-05-06 12:15 43.38050 5.28250 1533 ft 171 kts 333°
2026-05-06 12:16 43.39102 5.27602 1094 ft 158 kts 326°
2026-05-06 12:16 43.39932 5.26758 700 ft 139 kts 315°
2026-05-06 12:16 43.40595 5.25871 572 ft 127 kts 307°
2026-05-06 12:16 43.41201 5.25009 450 ft 124 kts 309°
2026-05-06 12:17 43.41802 5.24158 298 ft 123 kts 308°
2026-05-06 12:17 43.42399 5.23311 170 ft 123 kts 307°
2026-05-06 12:17 43.42989 5.22470 48 ft 122 kts 308°
2026-05-06 12:17 43.43530 5.21690 35 ft 95 kts 313°